Regional Weather Roundup
Issued by NWS Upton, NY

Current Version | Previous Version | Graphics & Text | Print | Product List | Glossary Off
Versions: 1 2 3 4 5 6 7 8 9 10 11 12 13 14 15 16 17 18 19 20 21 22 23 24 25 26 27

000
ASUS41 KOKX 230308
RWROKX

Regional Weather Roundup
National Weather Service New York NY
1000 PM EST MON JAN 22 2018

Note: "FAIR" indicates few or no clouds below 12,000 feet with no
significant weather and/or obstructions to visibility.

NYZ071-072-176-178-NJZ106-104-230400-
New York City Metro Area

CITY           SKY/WX    TMP DP  RH WIND       PRES   REMARKS
Central Park   CLOUDY    38  37  97 NE8       30.12F FOG     WCI  32
Bronx Bot Gard NOT AVBL
Bronx Lehman C   N/A     37  37 100 E9          N/A  WCI  31
LaGuardia Arpt FOG       37  35  92 NE10      30.10F VSB 1/8 WCI  30
Queens College   N/A     37  37 100 NE5         N/A  WCI  34
Kennedy Intl   CLOUDY    42  40  92 NE6       30.11F
Breezy Point     N/A     39 N/A N/A E9          N/A  WCI  33
Brooklyn Coll    N/A     43  37  81 NE5         N/A
Staten Island    N/A     41  37  87 N3          N/A
Newark/Liberty CLOUDY    40  38  93 N7        30.09F FOG
Teterboro      CLOUDY    39  38  96 E6        30.09F FOG     WCI  35
$$

NYZ177-179-078>081-230400-
Long Island New York

CITY           SKY/WX    TMP DP  RH WIND       PRES   REMARKS
Jones Beach      N/A     39 N/A N/A E9          N/A  WCI  33
Wantagh          N/A     43  41  93 E6          N/A
Matinecock Pt    N/A     36 N/A N/A E18         N/A  WCI  25
Farmingdale    FOG       41  41 100 E5        30.10F VSB 1/8
MacArthur/ISP  FOG       43  41  93 E5        30.09F VSB 1/8
Shirley        FOG       40  40 100 CALM      30.11F VSB 3/4
Mt Sinai Harb    N/A    N/A N/A N/A E6          N/A
Westhampton    FOG       43  42  97 E3        30.13F VSB 3/4
East Hampton   CLOUDY    42  41  97 E3        30.13F FOG
Southold         N/A     37  37 100 E9          N/A  WCI  31
Montauk          N/A     43  41  93 NE3       30.15F
$$

NYZ052-065-067-230400-
Hudson Valley

CITY           SKY/WX    TMP DP  RH WIND       PRES   REMARKS
White Plains   FOG       38  38 100 E10       30.09S VSB 1/8 WCI  31
Larchmont Harb   N/A     34 N/A N/A NE18        N/A  WCI  23
Croton On Huds   N/A     41 N/A N/A E1          N/A
Somers           N/A     39  37  93 E7          N/A  WCI  34
Brewster         N/A     37  37 100 E3          N/A
Newburgh       FOG       39  39 100 SE12      30.10F VSB 1/2 WCI  32
Montgomery     CLOUDY    37  36  96 N7        30.07F FOG     WCI  32
Otisville        N/A     36  36 100 NE3         N/A
Warwick          N/A     41  39  93 E6          N/A
Suffern          N/A     37  37 100 E2          N/A
Poughkeepsie   CLOUDY    38  36  92 CALM      30.10F FOG
Albany         CLOUDY    38  34  85 SE8       30.06F WCI  32
$$

NJZ001-105-106-008-010-013-015-019>022-104-230400-
New Jersey

CITY           SKY/WX    TMP DP  RH WIND       PRES   REMARKS
Newark/Liberty CLOUDY    40  38  93 N7        30.09F FOG
Teterboro      CLOUDY    39  38  96 E6        30.09F FOG     WCI  35
Caldwell       CLOUDY    39  39 100 E8        30.09F FOG     WCI  33
Somerville     MOCLDY    40  39  97 VRB3      30.05F FOG
Linden         CLOUDY    42  38  85 E7        30.09F
Perth Amboy      N/A     39 N/A N/A E7          N/A  WCI  34
Sussex         CLOUDY    37  36  96 CALM      30.05F FOG
Andover          N/A     40  39  97 CALM      30.04F
Trenton        FAIR      41  37  86 E7        30.04F
Millville      FAIR      50  36  58 VRB6      30.04F
Atlantic City  FAIR      48  39  71 S8        30.06F
Wrightstown    FAIR      39  37  91 SE5       30.01F
Toms River     FAIR      34  32  92 SE3       30.07F
Belmar         FAIR      40  39  97 NE5       30.08F
$$

PAZ047>061-062-071-230400-
Eastern Pennsylvania

CITY           SKY/WX    TMP DP  RH WIND       PRES   REMARKS
Philadelphia   MOCLDY    46  38  73 CALM      30.02F
Allentown      FAIR      42  36  79 NE8       30.02F
Scranton       FAIR      50  40  68 S6        29.95F
$$

CTZ002-004>006-009-010-012-RIZ004-006-007-MAZ004-011-015-230400-
Southern New England

 In CT

CITY           SKY/WX    TMP DP  RH WIND       PRES   REMARKS
Bradley Intl   DRIZZLE   35  35 100 N8        30.17F FOG     WCI  29
Hartford       FOG       37  37 100 N6        30.16F VSB 1   WCI  32
Danbury        FOG       39  38  96 E6        30.12F VSB 1   WCI  35
Wtrbury/Oxford LGT RAIN  37  37 100 E9        30.11F VSB 1/4 WCI  30
Norwalk Harbor   N/A     36 N/A N/A NE21        N/A  WCI  24
Bridgeport     CLOUDY    39  37  92 E15       30.12F FOG     WCI  31
Meriden        CLOUDY    39  37  92 CALM      30.14F FOG
New Haven      CLOUDY    42  38  85 NE7       30.13F
Chester        CLOUDY    39  39 100 VRB5      30.13F FOG
Groton         CLOUDY    41  39  93 E13       30.15F
Willimantic    CLOUDY    38  37  97 E3        30.17F FOG

 In RI

CITY           SKY/WX    TMP DP  RH WIND       PRES   REMARKS
Providence     FOG       38  38 100 N5        30.19F VSB 3/4 WCI  34
Block Island   CLOUDY    41  41 100 E9        30.15F FOG
Westerly       CLOUDY    41  40  96 E12       30.17F

In MA

CITY           SKY/WX    TMP DP  RH WIND       PRES   REMARKS
Boston         DRIZZLE   38  38 100 E6        30.20F FOG     WCI  33
Worcester      FOG       30  29  96 NE6       30.15F VSB 1/4 WCI  24
Westfield      CLOUDY    34  34 100 N6        30.17F WCI  29
Provincetown   CLOUDY    42  39  89 SE10      30.19F
Nantucket      CLOUDY    41  41 100 E15       30.20F
$$

ANZ330-335-338-340-345-350-353-355-230400-
Coastal Marine Observations


STATION/POSITION TIME  SKY/WX   TEMP    WIND        PRES    VSBY  WAVE
                                AIR SEA DIR/SP/G                  HT/PER
                 (UTC)          (F)     (DEG/KT/KT) (MB)    (MI)  (FT/S)
NY Harb Entrance 0150            39 40   70/ 10/ 12 1019.3          2/ 6
20 S Fire Island 0150            45 42  110/  6/  6 1019.9          2/ 7
15 E Barnegat Li 0230               43                N/A           2/10
Hudson Canyon    0150            51 49  140/  8/  8 1020.1          2/ 4
Kings Point      0230            37 34   60/  3/  6 1020.4
Execution Rocks  NOT AVBL
Western LI Sound NOT AVBL
Central LI Sound NOT AVBL
Robbins Reef     0236            39      40/  8/ 11 1019.6
$$


>>>>>>>>>>>>>>>>>>>>>>>>>>>> KEY <<<<<<<<<<<<<<<<<<<<<<<<<<<
>                                                          <
>     SKY/WX - Sky Condition/Present Weather               <
>     TMP    - Temperature in Fahrenheit                   <
>     DP     - Dew Point in Fahrenheit                     <
>     RH     - Relative Humidity in Percent                <
>     WIND   - Direction (from) and Speed in MPH           <
>     PRES   - Mean Sea Level Pressure (inches of Hg)      <
>     WCI    - Wind Chill Index                            <
>     VSB    - Visibility in Miles                         <
>     HX     - Heat Index                                  <
>     TC     - Temperature in Celsius                      <
>     VRB    - Varibale Wind Direction                     <
>                                                          <
>>>>>>>>>>>>>>>>>>>>>>>>>>>> KEY <<<<<<<<<<<<<<<<<<<<<<<<<<<




USA.gov is the U.S. government's official web portal to all federal, state and local government web resources and services.